Stündliche Wetter Holod'ky

Heute, 15 Juni, Dienstag

Zeit Temperatur Niederschläge Wind Luftdruck Luftfeuchtigkeit
00:00 +15°C° 0.2 mm 2 m/S 739 mmHg 95%
01:00 +15°C° 0.2 mm 2 m/S 739 mmHg 95%
02:00 +14°C° 0.2 mm 3 m/S 739 mmHg 96%
03:00 +14°C° 0 mm 3 m/S 739 mmHg 96%
04:00 +14°C° 0 mm 3 m/S 739 mmHg 96%
05:00 +14°C° 0 mm 3 m/S 739 mmHg 96%
06:00 +17°C° 0 mm 3 m/S 739 mmHg 92%
07:00 +18°C° 0 mm 3 m/S 740 mmHg 88%
08:00 +20°C° 0 mm 4 m/S 740 mmHg 84%
09:00 +21°C° 0.6 mm 4 m/S 740 mmHg 79%
10:00 +22°C° 0.6 mm 4 m/S 739 mmHg 74%
11:00 +25°C° 0.6 mm 4 m/S 739 mmHg 69%
12:00 +25°C° 0.5 mm 4 m/S 739 mmHg 68%
13:00 +25°C° 0.5 mm 5 m/S 739 mmHg 68%
14:00 +25°C° 0.5 mm 5 m/S 739 mmHg 67%
15:00 +25°C° 0.5 mm 4 m/S 738 mmHg 71%
16:00 +23°C° 0.5 mm 4 m/S 738 mmHg 75%
17:00 +23°C° 0.5 mm 4 m/S 738 mmHg 78%
18:00 +21°C° 0.8 mm 4 m/S 738 mmHg 82%
19:00 +20°C° 0.8 mm 4 m/S 737 mmHg 85%
20:00 +19°C° 0.8 mm 4 m/S 737 mmHg 89%
21:00 +18°C° 0.4 mm 4 m/S 737 mmHg 91%
22:00 +18°C° 0.4 mm 4 m/S 737 mmHg 92%
23:00 +17°C° 0.4 mm 4 m/S 737 mmHg 94%

Morgen, 16 Juni, Mittwoch

Zeit Temperatur Niederschläge Wind Luftdruck Luftfeuchtigkeit
00:00 +17°C° 0.6 mm 4 m/S 737 mmHg 95%
01:00 +17°C° 0.6 mm 4 m/S 737 mmHg 95%
02:00 +17°C° 0.6 mm 4 m/S 737 mmHg 96%
03:00 +15°C° 0.7 mm 4 m/S 737 mmHg 96%
04:00 +15°C° 0.7 mm 4 m/S 738 mmHg 96%
05:00 +15°C° 0.7 mm 4 m/S 738 mmHg 97%
06:00 +16°C° 0.4 mm 5 m/S 738 mmHg 95%
07:00 +17°C° 0.4 mm 5 m/S 738 mmHg 93%
08:00 +19°C° 0.4 mm 5 m/S 739 mmHg 92%
09:00 +20°C° 0.1 mm 6 m/S 739 mmHg 87%
10:00 +21°C° 0.1 mm 6 m/S 739 mmHg 81%
11:00 +23°C° 0.1 mm 6 m/S 738 mmHg 76%
12:00 +23°C° 1.6 mm 6 m/S 739 mmHg 78%
13:00 +23°C° 1.6 mm 6 m/S 739 mmHg 80%
14:00 +22°C° 1.6 mm 6 m/S 739 mmHg 81%
15:00 +22°C° 2.2 mm 6 m/S 739 mmHg 84%
16:00 +21°C° 2.2 mm 6 m/S 739 mmHg 86%
17:00 +20°C° 2.2 mm 6 m/S 739 mmHg 88%
18:00 +20°C° 0.4 mm 5 m/S 739 mmHg 90%
19:00 +19°C° 0.4 mm 4 m/S 740 mmHg 93%
20:00 +19°C° 0.4 mm 3 m/S 740 mmHg 95%
21:00 +18°C° 0.3 mm 3 m/S 740 mmHg 95%
22:00 +18°C° 0.3 mm 3 m/S 740 mmHg 95%
23:00 +17°C° 0.3 mm 3 m/S 740 mmHg 96%

übermorgen, 17 Juni, Donnerstag

Zeit Temperatur Niederschläge Wind Luftdruck Luftfeuchtigkeit
00:00 +17°C° 0 mm 3 m/S 741 mmHg 96%
01:00 +17°C° 0 mm 3 m/S 741 mmHg 96%
02:00 +16°C° 0 mm 3 m/S 741 mmHg 97%
03:00 +17°C° 0 mm 3 m/S 741 mmHg 97%
04:00 +17°C° 0 mm 4 m/S 741 mmHg 97%
05:00 +17°C° 0 mm 4 m/S 741 mmHg 97%
06:00 +17°C° 0 mm 5 m/S 741 mmHg 94%
07:00 +20°C° 0 mm 5 m/S 742 mmHg 91%
08:00 +21°C° 0 mm 6 m/S 742 mmHg 88%
09:00 +22°C° 0 mm 6 m/S 742 mmHg 83%
10:00 +23°C° 0 mm 6 m/S 743 mmHg 79%
11:00 +24°C° 0 mm 7 m/S 743 mmHg 74%
12:00 +24°C° 0.1 mm 7 m/S 743 mmHg 74%
13:00 +26°C° 0.1 mm 7 m/S 743 mmHg 74%
14:00 +26°C° 0.1 mm 7 m/S 743 mmHg 74%
15:00 +26°C° 0.1 mm 7 m/S 743 mmHg 75%
16:00 +24°C° 0.1 mm 7 m/S 743 mmHg 77%
17:00 +24°C° 0.1 mm 6 m/S 743 mmHg 78%
18:00 +23°C° 0 mm 6 m/S 743 mmHg 81%
19:00 +22°C° 0 mm 6 m/S 744 mmHg 84%
20:00 +21°C° 0 mm 6 m/S 744 mmHg 87%
21:00 +20°C° 0 mm 5 m/S 744 mmHg 89%
22:00 +19°C° 0 mm 5 m/S 744 mmHg 91%
23:00 +17°C° 0 mm 5 m/S 744 mmHg 94%

18 Juni, Freitag

Zeit Temperatur Niederschläge Wind Luftdruck Luftfeuchtigkeit
00:00 +18°C° 0 mm 4 m/S 744 mmHg 95%
01:00 +17°C° 0 mm 4 m/S 744 mmHg 95%
02:00 +15°C° 0 mm 4 m/S 744 mmHg 96%
03:00 +15°C° 0 mm 4 m/S 745 mmHg 96%
04:00 +15°C° 0 mm 4 m/S 745 mmHg 95%
05:00 +15°C° 0 mm 4 m/S 745 mmHg 95%
06:00 +17°C° 0 mm 4 m/S 745 mmHg 91%
07:00 +19°C° 0 mm 5 m/S 745 mmHg 87%
08:00 +20°C° 0 mm 5 m/S 745 mmHg 84%
09:00 +21°C° 0 mm 6 m/S 745 mmHg 82%
10:00 +22°C° 0 mm 6 m/S 745 mmHg 80%
11:00 +23°C° 0 mm 6 m/S 745 mmHg 77%
12:00 +23°C° 0 mm 6 m/S 745 mmHg 78%
13:00 +23°C° 0 mm 6 m/S 745 mmHg 78%
14:00 +23°C° 0 mm 6 m/S 745 mmHg 78%
15:00 +23°C° 0.1 mm 6 m/S 745 mmHg 79%
16:00 +23°C° 0.1 mm 6 m/S 745 mmHg 79%
17:00 +23°C° 0.1 mm 6 m/S 745 mmHg 80%
18:00 +22°C° 0 mm 5 m/S 745 mmHg 83%
19:00 +21°C° 0 mm 4 m/S 745 mmHg 86%
20:00 +20°C° 0 mm 4 m/S 745 mmHg 89%
21:00 +19°C° 0 mm 4 m/S 745 mmHg 90%
22:00 +18°C° 0 mm 4 m/S 746 mmHg 91%
23:00 +18°C° 0 mm 3 m/S 746 mmHg 92%

19 Juni, Samstag

Zeit Temperatur Niederschläge Wind Luftdruck Luftfeuchtigkeit
00:00 +17°C° 0 mm 3 m/S 746 mmHg 93%
01:00 +17°C° 0 mm 3 m/S 746 mmHg 94%
02:00 +16°C° 0 mm 3 m/S 746 mmHg 95%
03:00 +17°C° 0 mm 3 m/S 746 mmHg 94%
04:00 +17°C° 0 mm 3 m/S 746 mmHg 93%
05:00 +17°C° 0 mm 3 m/S 746 mmHg 92%
06:00 +18°C° 0 mm 3 m/S 746 mmHg 91%
07:00 +18°C° 0 mm 3 m/S 746 mmHg 90%
08:00 +19°C° 0 mm 3 m/S 747 mmHg 89%
09:00 +20°C° 0 mm 3 m/S 747 mmHg 84%
10:00 +21°C° 0 mm 4 m/S 747 mmHg 80%
11:00 +22°C° 0 mm 4 m/S 747 mmHg 75%
12:00 +23°C° 0 mm 4 m/S 746 mmHg 70%
13:00 +25°C° 0 mm 4 m/S 746 mmHg 65%
14:00 +26°C° 0 mm 5 m/S 746 mmHg 60%
15:00 +26°C° 0 mm 4 m/S 746 mmHg 64%
16:00 +25°C° 0 mm 4 m/S 746 mmHg 68%
17:00 +25°C° 0 mm 3 m/S 746 mmHg 72%
18:00 +22°C° 0 mm 3 m/S 745 mmHg 75%
19:00 +21°C° 0 mm 3 m/S 745 mmHg 79%
20:00 +20°C° 0 mm 3 m/S 745 mmHg 82%
21:00 +19°C° 0 mm 3 m/S 746 mmHg 84%
22:00 +18°C° 0 mm 3 m/S 746 mmHg 85%
23:00 +17°C° 0 mm 3 m/S 746 mmHg 86%

20 Juni, Sonntag

Zeit Temperatur Niederschläge Wind Luftdruck Luftfeuchtigkeit
00:00 +17°C° 0 mm 3 m/S 746 mmHg 87%
01:00 +17°C° 0 mm 2 m/S 746 mmHg 88%
02:00 +16°C° 0 mm 2 m/S 746 mmHg 89%
03:00 +16°C° 0 mm 2 m/S 746 mmHg 90%
04:00 +16°C° 0 mm 2 m/S 746 mmHg 90%
05:00 +16°C° 0 mm 2 m/S 746 mmHg 91%
06:00 +18°C° 0 mm 2 m/S 746 mmHg 86%
07:00 +19°C° 0 mm 3 m/S 746 mmHg 81%
08:00 +21°C° 0 mm 3 m/S 746 mmHg 76%
09:00 +22°C° 0 mm 3 m/S 746 mmHg 73%
10:00 +23°C° 0 mm 4 m/S 745 mmHg 69%
11:00 +25°C° 0 mm 4 m/S 745 mmHg 65%
12:00 +25°C° 0 mm 4 m/S 745 mmHg 64%
13:00 +25°C° 0 mm 4 m/S 745 mmHg 63%
14:00 +26°C° 0 mm 3 m/S 745 mmHg 63%
15:00 +26°C° 0 mm 3 m/S 745 mmHg 65%
16:00 +26°C° 0 mm 3 m/S 744 mmHg 67%
17:00 +26°C° 0 mm 3 m/S 744 mmHg 70%
18:00 +24°C° 0 mm 3 m/S 744 mmHg 74%
19:00 +22°C° 0 mm 3 m/S 744 mmHg 78%
20:00 +20°C° 0 mm 3 m/S 744 mmHg 83%
21:00 +19°C° 0 mm 2 m/S 744 mmHg 83%
22:00 +19°C° 0 mm 2 m/S 744 mmHg 84%
23:00 +18°C° 0 mm 2 m/S 744 mmHg 85%
Mehr zeigen

Wir brauchen deine Erlaubnis

Meteoprog und unser Service Anbieter werden persönliche Daten aufbewahren, so wie Cookies, Geräte Bezeichnung oder ähnliche Technologien von deinem Gerät und Prozess, so wie Persönliche Daten Inhalte und Werbungen, genauso wie social Media und den Verkehr zu analysieren.

  • Aufbewahrung und/oder Zugang zu deiner Geräte Informationen.

    Cookies, Geräte Bezeichnung oder andere Informationen, können aufbewahrt oder Zugang zu deinem Gerät erhalten, für den Grund, der oben angegeben wird.

  • Personalisierte Werbung und Inhalte, Messungen, Einblick in das Publikum und Produkt Entwicklung.

    Werbungen und Inhalte können personalisiert werden, basierend auf ein Profil. Mehr Daten können besser personalisierte Werbungen und Inhalte hinzufügen. Werbung und Inhalte können gezeigt und gemessen werden. Einblicke über das Publikum, welche die Werbung gesehen haben und den Inhalt, können abgeleitet werden. So wie Daten können genutzt werden, um es zu verbessern oder die Benutzer Erfahrung zu verbessern das System und die Software.

Wenn du “Ich stimme zu” klickst, erlaubst du uns, die Cookies zu benutzen die Geräte Bezeichnung, den Web oder ähnliche Technologien zu benutzen. Deine Settings, können in deinem Gerät bei deinem Browser geändert werden.

Für den bestimmten Zweck, berechtigten Interessen beruhen darauf, mehr als auf den Inhalt. Du kannst mehr darüber in unseren Privaten und Cookie Politik lesen.